HP3ICC-17 Weather Reports


time (UTC)temp
F
wind
direction
speed
knots
gust
knots
rain 1hr
in
rain 24hr
in
rain mn
in
humidity
%
barometer
mb
20260503014211 74 226 1.7 0.9 0.00 0.00 0.00 86 1011.0
20260503014111 74 226 1.7 0.9 0.00 0.00 0.00 86 1011.0
20260503012210 73 246 0.9 2.6 0.00 0.00 0.00 85 1011.0
20260503012110 73 246 0.9 2.6 0.00 0.00 0.00 85 1011.0
20260503010210 74 246 0.9 2.6 0.00 0.00 0.00 85 1011.0
20260503010109 74 246 0.9 2.6 0.00 0.00 0.00 85 1011.0
20260503004209 75 246 0.9 2.6 0.00 0.00 0.00 85 1011.0
20260503004109 75 246 0.9 2.6 0.00 0.00 0.00 85 1011.0
20260503002208 76 246 1.7 2.6 0.01 0.00 0.00 85 1010.0
20260503002108 76 246 1.7 2.6 0.01 0.00 0.00 85 1010.0
20260503000208 73 278 2.6 2.6 0.01 0.00 0.00 85 1010.0
20260503000107 73 278 2.6 2.6 0.01 0.00 0.00 85 1010.0
20260502234207 74 278 2.6 2.6 0.00 0.00 0.00 85 1010.0
20260502234107 74 278 2.6 2.6 0.00 0.00 0.00 85 1010.0
20260502232207 75 278 2.6 2.6 0.00 0.00 0.00 85 1009.0
20260502232106 75 278 2.6 2.6 0.00 0.00 0.00 85 1009.0
20260502230206 74 278 2.6 2.6 0.00 0.00 0.00 85 1009.0
20260502230106 74 278 2.6 2.6 0.00 0.00 0.00 85 1009.0
20260502224206 75 278 2.6 2.6 0.00 0.00 0.00 85 1009.0
20260502224105 75 278 2.6 2.6 0.00 0.00 0.00 85 1009.0
20260502222205 74 315 0.9 2.6 0.00 0.00 0.00 84 1009.0
20260502222105 74 315 0.9 2.6 0.00 0.00 0.00 84 1009.0
20260502220205 75 315 0.9 2.6 0.00 0.00 0.00 84 1009.0
20260502220104 75 315 0.9 2.6 0.00 0.00 0.00 84 1009.0
20260502214204 76 315 0.9 2.6 0.00 0.00 0.00 84 1009.0
20260502214104 76 315 0.9 2.6 0.00 0.00 0.00 84 1009.0
20260502212203 77 315 0.9 2.6 0.00 0.00 0.00 84 1009.0
20260502212103 77 315 0.9 2.6 0.00 0.00 0.00 84 1009.0
20260502210203 78 315 1.7 2.6 0.00 0.00 0.00 84 1009.0
20260502204202 75 309 2.6 4.3 0.00 0.00 0.00 83 1009.0
20260502204102 75 309 2.6 4.3 0.00 0.00 0.00 83 1009.0
20260502202201 76 309 2.6 4.3 0.00 0.00 0.00 83 1010.0
20260502202101 76 309 2.6 4.3 0.00 0.00 0.00 83 1010.0
20260502200201 77 309 2.6 4.3 0.00 0.00 0.00 83 1010.0
20260502200101 77 309 2.6 4.3 0.00 0.00 0.00 83 1010.0
20260502194200 78 309 2.6 4.3 0.00 0.00 0.00 83 1010.0
20260502194100 78 309 2.6 4.3 0.00 0.00 0.00 83 1010.0
20260502192200 75 309 4.3 7.0 0.00 0.00 0.00 83 1010.0
20260502192100 75 309 4.3 7.0 0.00 0.00 0.00 83 1010.0
20260502190200 76 309 4.3 7.0 0.00 0.00 0.00 83 1010.0
20260502190059 76 309 4.3 7.0 0.00 0.00 0.00 83 1010.0
20260502184159 77 309 4.3 7.0 0.00 0.00 0.00 83 1010.0
20260502184059 77 309 4.3 7.0 0.00 0.00 0.00 83 1010.0
20260502182159 78 309 4.3 7.0 0.01 0.00 0.00 83 1011.0
20260502182058 78 309 4.3 7.0 0.01 0.00 0.00 83 1011.0
20260502180158 76 310 4.3 6.1 0.00 0.00 0.00 83 1011.0
20260502170157 79 310 4.3 6.1 0.01 0.00 0.00 83 1012.0
20260502164156 76 303 3.5 6.1 0.01 0.00 0.00 85 1012.0
20260502164056 76 303 3.5 6.1 0.01 0.00 0.00 85 1012.0
20260502162156 77 303 3.5 6.1 0.00 0.00 0.00 85 1012.0
20260502162055 77 303 3.5 6.1 0.00 0.00 0.00 85 1012.0
20260502160155 78 303 3.5 6.1 0.01 0.00 0.00 85 1012.0
20260502152154 74 302 2.6 4.3 0.00 0.00 0.00 86 1012.0
20260502152054 74 302 2.6 4.3 0.00 0.00 0.00 86 1012.0
20260502150153 75 302 2.6 4.3 0.00 0.00 0.00 86 1012.0
20260502130151 76 280 2.6 5.2 0.01 0.00 0.00 84 1011.0
20260502122150 74 274 2.6 4.3 0.00 0.00 0.00 86 1010.0
20260502122050 74 274 2.6 4.3 0.00 0.00 0.00 86 1010.0
20260502120150 75 274 2.6 4.3 0.00 0.00 0.00 86 1010.0
20260502114149 76 274 2.6 5.2 0.00 0.00 0.00 86 1010.0
20260502114049 76 274 2.6 5.2 0.00 0.00 0.00 86 1010.0
20260502112148 73 289 2.6 4.3 0.00 0.00 0.00 87 1009.0
20260502112048 73 289 2.6 4.3 0.00 0.00 0.00 87 1009.0
20260502110148 74 289 2.6 4.3 0.00 0.00 0.00 87 1009.0
20260502110047 74 289 2.6 4.3 0.00 0.00 0.00 87 1009.0
20260502104147 75 289 2.6 4.3 0.00 0.00 0.00 87 1009.0
20260502104047 75 289 2.6 4.3 0.00 0.00 0.00 87 1009.0
20260502102147 76 289 2.6 4.3 0.00 0.00 0.00 87 1009.0
20260502102047 76 289 2.6 4.3 0.00 0.00 0.00 87 1009.0
20260502100146 73 299 3.5 4.3 0.00 0.00 0.00 87 1009.0
20260502090145 73 299 3.5 4.3 0.00 0.00 0.00 87 1009.0
20260502070142 73 272 2.6 3.5 0.00 0.00 0.00 86 1009.0
20260502070042 73 272 2.6 3.5 0.00 0.00 0.00 86 1009.0
20260502064142 74 272 2.6 3.5 0.00 0.00 0.00 86 1009.0
20260502064042 74 272 2.6 3.5 0.00 0.00 0.00 86 1009.0
20260502062141 73 279 2.6 3.5 0.00 0.00 0.00 84 1010.0
20260502062041 73 279 2.6 3.5 0.00 0.00 0.00 84 1010.0
20260502060141 74 279 2.6 3.5 0.00 0.00 0.00 84 1010.0
20260502060040 74 279 2.6 3.5 0.00 0.00 0.00 84 1010.0
20260502054140 75 279 2.6 3.5 0.00 0.00 0.00 84 1010.0
20260502054040 75 279 2.6 3.5 0.00 0.00 0.00 84 1010.0
20260502052140 76 279 2.6 3.5 0.00 0.00 0.00 84 1010.0
20260502052040 76 279 2.6 3.5 0.00 0.00 0.00 84 1010.0
20260502050139 73 277 2.6 3.5 0.00 0.00 0.00 84 1010.0
20260502050039 73 277 2.6 3.5 0.00 0.00 0.00 84 1010.0
20260502044139 74 277 2.6 3.5 0.00 0.00 0.00 84 1010.0
20260502044039 74 277 2.6 3.5 0.00 0.00 0.00 84 1010.0
20260502042138 75 277 2.6 3.5 0.00 0.00 0.00 84 1010.0
20260502042038 75 277 2.6 3.5 0.00 0.00 0.00 84 1010.0
20260502040138 73 277 2.6 3.5 0.00 0.00 0.00 84 1010.0
20260502040038 73 277 2.6 3.5 0.00 0.00 0.00 84 1010.0
20260502034137 74 277 2.6 3.5 0.00 0.00 0.00 84 1010.0
20260502034037 74 277 2.6 3.5 0.00 0.00 0.00 84 1010.0
20260502032137 74 262 2.6 2.6 0.00 0.00 0.00 82 1010.0
20260502032037 74 262 2.6 2.6 0.00 0.00 0.00 82 1010.0
20260502030136 74 262 2.6 2.6 0.00 0.00 0.00 82 1010.0
20260502030036 74 262 2.6 2.6 0.00 0.00 0.00 82 1010.0
20260502024136 74 246 0.9 0.9 0.00 0.00 0.00 79 1010.0
20260502024036 74 246 0.9 0.9 0.00 0.00 0.00 79 1010.0
20260502022135 75 246 1.7 1.7 0.00 0.00 0.00 79 1010.0
20260502022035 75 246 1.7 1.7 0.00 0.00 0.00 79 1010.0
20260502020135 74 270 0.9 2.6 0.00 0.00 0.00 78 1010.0
20260502020035 74 270 0.9 2.6 0.00 0.00 0.00 78 1010.0